Voltar ao catálogo

STARLINK-5797

AtivoComunicaçõesVLEO
NORAD 55784·PAYLOAD·🇺🇸 United States

Lançado Mar 3, 2023 de Vandenberg Space Force Base

Loading…

Próximas Passagens (próximas 24 horas)

TLE

AtualizadoSource: CelesTrak SupGP

Época: Sep 15, 2026, 02:19 UTC

1 55784C 23028AV  26258.09701389 -.00037206  00000+0 -31178-2 0  2583
2 55784  70.0001  86.9738 0002887 270.8486 159.3755 14.98351847    16

Acompanhe STARLINK-5797 em tempo real com AllMySat

Download on the App Store